DLH443 EDDF-EDDS

Flight info

Callsign DLH443
Flight time 0h 23m
Altitude 18000
Route ANEKI2L/18 ANEKI Y163 NEKLO Y171 INKAM N850 KRH T128 BADSO BADSO2A
Aircraft A20N/M-V/N

Departure

Time 2026-05-04 15:01
Airport Frankfurt Main Airport (EDDF)

Arrival

Time 2026-05-04 15:25
Airport Stuttgart Airport (EDDS)
Time Latitude Longitude Altitude Speed Heading
2026-05-04 14:38 50.04463 8.56424 359 ft 0 kts 155°
2026-05-04 14:51 50.04474 8.56416 359 ft 2 kts 155°
2026-05-04 14:51 50.04485 8.56408 361 ft 2 kts 155°
2026-05-04 14:51 50.04496 8.56400 359 ft 2 kts 155°
2026-05-04 14:51 50.04507 8.56393 361 ft 2 kts 173°
2026-05-04 14:52 50.04518 8.56393 359 ft 1 kts 208°
2026-05-04 14:52 50.04522 8.56395 358 ft 0 kts 230°
2026-05-04 14:55 50.04521 8.56392 354 ft 1 kts 231°
2026-05-04 14:55 50.04506 8.56343 356 ft 10 kts 249°
2026-05-04 14:55 50.04472 8.56200 356 ft 18 kts 251°
2026-05-04 14:56 50.04422 8.56036 353 ft 12 kts 214°
2026-05-04 14:56 50.04329 8.56064 353 ft 17 kts 155°
2026-05-04 14:56 50.04251 8.55987 357 ft 15 kts 252°
2026-05-04 14:56 50.04214 8.55829 352 ft 16 kts 249°
2026-05-04 14:57 50.04169 8.55647 356 ft 21 kts 250°
2026-05-04 14:57 50.04106 8.55385 362 ft 29 kts 250°
2026-05-04 14:57 50.04030 8.55067 361 ft 34 kts 249°
2026-05-04 14:57 50.03944 8.54706 359 ft 37 kts 250°
2026-05-04 14:58 50.03886 8.54463 360 ft 8 kts 250°
2026-05-04 14:58 50.03863 8.54373 362 ft 10 kts 240°
2026-05-04 14:58 50.03824 8.54289 362 ft 9 kts 233°
2026-05-04 14:58 50.03791 8.54182 367 ft 15 kts 249°
2026-05-04 14:59 50.03743 8.53985 366 ft 24 kts 250°
2026-05-04 14:59 50.03676 8.53700 362 ft 32 kts 250°
2026-05-04 14:59 50.03502 8.52989 370 ft 34 kts 250°
2026-05-04 15:00 50.03420 8.52679 379 ft 29 kts 243°
2026-05-04 15:00 50.03324 8.52593 375 ft 17 kts 180°
2026-05-04 15:00 50.03152 8.52595 369 ft 50 kts 180°
2026-05-04 15:01 50.01421 8.52626 585 ft 168 kts 182°
2026-05-04 15:01 50.00267 8.52693 1491 ft 166 kts 181°
2026-05-04 15:01 49.99120 8.52805 2415 ft 166 kts 181°
2026-05-04 15:01 49.97892 8.52868 2891 ft 186 kts 182°
2026-05-04 15:02 49.96547 8.52895 3464 ft 200 kts 182°
2026-05-04 15:02 49.95099 8.52892 3870 ft 221 kts 183°
2026-05-04 15:02 49.93494 8.52960 3934 ft 236 kts 179°
2026-05-04 15:02 49.91863 8.53124 4237 ft 236 kts 179°
2026-05-04 15:03 49.90248 8.53266 4711 ft 234 kts 179°
2026-05-04 15:03 49.88607 8.53422 5267 ft 234 kts 178°
2026-05-04 15:03 49.87021 8.53611 5793 ft 228 kts 176°
2026-05-04 15:03 49.85427 8.53760 6359 ft 229 kts 178°
2026-05-04 15:04 49.83840 8.53871 6942 ft 228 kts 178°
2026-05-04 15:04 49.82263 8.53938 7739 ft 225 kts 181°
2026-05-04 15:04 49.80690 8.53887 8559 ft 228 kts 182°
2026-05-04 15:04 49.79121 8.53847 9511 ft 224 kts 181°
2026-05-04 15:05 49.77563 8.53853 10214 ft 229 kts 181°
2026-05-04 15:05 49.75930 8.53887 10926 ft 235 kts 180°
2026-05-04 15:05 49.74296 8.53948 11648 ft 240 kts 180°
2026-05-04 15:05 49.72614 8.54038 12406 ft 244 kts 179°
2026-05-04 15:06 49.70888 8.54044 13007 ft 256 kts 187°
2026-05-04 15:06 49.69055 8.53581 13268 ft 279 kts 192°
2026-05-04 15:06 49.67056 8.53000 13499 ft 303 kts 191°
2026-05-04 15:07 49.62567 8.52094 14114 ft 340 kts 187°
2026-05-04 15:07 49.60202 8.51754 14843 ft 343 kts 187°
2026-05-04 15:07 49.57809 8.51439 15551 ft 347 kts 187°
2026-05-04 15:07 49.55390 8.51127 16245 ft 351 kts 187°
2026-05-04 15:08 49.52947 8.50813 16945 ft 354 kts 187°
2026-05-04 15:08 49.51314 8.50601 17394 ft 356 kts 187°
2026-05-04 15:08 49.48827 8.50277 17837 ft 360 kts 187°
2026-05-04 15:08 49.46336 8.49952 17961 ft 361 kts 187°
2026-05-04 15:09 49.43828 8.49625 17973 ft 361 kts 187°
2026-05-04 15:09 49.41323 8.49298 17973 ft 362 kts 187°
2026-05-04 15:09 49.38818 8.48972 17972 ft 361 kts 187°
2026-05-04 15:10 49.33808 8.48319 17831 ft 359 kts 187°
2026-05-04 15:10 49.31323 8.47995 17445 ft 357 kts 187°
2026-05-04 15:10 49.26439 8.49210 16382 ft 360 kts 163°
2026-05-04 15:11 49.24121 8.50480 15853 ft 357 kts 163°
2026-05-04 15:11 49.21790 8.51755 15397 ft 355 kts 163°
2026-05-04 15:11 49.19468 8.53022 14890 ft 354 kts 163°
2026-05-04 15:11 49.17152 8.54275 14404 ft 352 kts 163°
2026-05-04 15:12 49.14851 8.55518 13898 ft 349 kts 163°
2026-05-04 15:12 49.12571 8.56751 13394 ft 346 kts 163°
2026-05-04 15:12 49.10318 8.57971 13061 ft 340 kts 163°
2026-05-04 15:12 49.08079 8.59185 12976 ft 345 kts 163°
2026-05-04 15:13 49.05817 8.60409 12964 ft 344 kts 163°
2026-05-04 15:13 49.03573 8.61624 12770 ft 341 kts 163°
2026-05-04 15:13 49.01337 8.62835 12369 ft 339 kts 163°
2026-05-04 15:13 48.99124 8.64035 11885 ft 337 kts 163°
2026-05-04 15:14 48.96927 8.65228 11431 ft 333 kts 163°
2026-05-04 15:14 48.94752 8.66406 10957 ft 330 kts 163°
2026-05-04 15:14 48.92598 8.67577 10512 ft 327 kts 163°
2026-05-04 15:14 48.90470 8.68745 10077 ft 324 kts 163°
2026-05-04 15:15 48.88358 8.69904 9598 ft 321 kts 163°
2026-05-04 15:15 48.86266 8.71035 9170 ft 317 kts 163°
2026-05-04 15:15 48.84187 8.72138 8621 ft 316 kts 163°
2026-05-04 15:16 48.80068 8.74246 7714 ft 309 kts 163°
2026-05-04 15:16 48.78058 8.75235 7489 ft 298 kts 163°
2026-05-04 15:16 48.74282 8.77032 7194 ft 274 kts 163°
2026-05-04 15:17 48.72519 8.77849 7067 ft 261 kts 163°
2026-05-04 15:17 48.69277 8.79336 6777 ft 226 kts 163°
2026-05-04 15:17 48.67823 8.79993 6636 ft 210 kts 163°
2026-05-04 15:18 48.66445 8.80612 6343 ft 204 kts 161°
2026-05-04 15:18 48.65298 8.81769 5978 ft 198 kts 128°
2026-05-04 15:18 48.64762 8.83685 5474 ft 201 kts 104°
2026-05-04 15:19 48.64389 8.87714 4957 ft 180 kts 96°
2026-05-04 15:19 48.64266 8.89524 4851 ft 166 kts 96°
2026-05-04 15:19 48.64046 8.92698 4454 ft 144 kts 95°
2026-05-04 15:20 48.63939 8.94203 4096 ft 143 kts 95°
2026-05-04 15:20 48.63930 8.95670 3951 ft 144 kts 80°
2026-05-04 15:20 48.64193 8.97139 3973 ft 146 kts 72°
2026-05-04 15:20 48.64490 8.98617 3942 ft 146 kts 73°
2026-05-04 15:21 48.64777 9.00097 3836 ft 146 kts 73°
2026-05-04 15:21 48.65065 9.01566 3762 ft 146 kts 72°
2026-05-04 15:21 48.65640 9.04474 3542 ft 145 kts 72°
2026-05-04 15:22 48.65924 9.05939 3372 ft 145 kts 73°
2026-05-04 15:22 48.66200 9.07398 3158 ft 143 kts 73°
2026-05-04 15:22 48.66724 9.10295 2688 ft 142 kts 75°
2026-05-04 15:23 48.66992 9.11747 2463 ft 146 kts 72°
2026-05-04 15:23 48.67279 9.13210 2281 ft 144 kts 73°
2026-05-04 15:23 48.67549 9.14662 2051 ft 140 kts 71°
2026-05-04 15:23 48.67824 9.16098 1902 ft 145 kts 70°
2026-05-04 15:24 48.68377 9.18984 1502 ft 145 kts 71°
2026-05-04 15:24 48.68915 9.21792 1286 ft 104 kts 74°
2026-05-04 15:25 48.69027 9.22407 1287 ft 17 kts 73°
2026-05-04 15:25 48.69061 9.22531 1288 ft 19 kts 46°
2026-05-04 15:25 48.69128 9.22532 1289 ft 12 kts 350°
2026-05-04 15:26 48.69279 9.22363 1286 ft 11 kts 237°
2026-05-04 15:26 48.69255 9.22236 1286 ft 14 kts 255°
2026-05-04 15:26 48.69237 9.22139 1286 ft 8 kts 253°
2026-05-04 15:27 48.69209 9.21989 1287 ft 22 kts 254°
2026-05-04 15:27 48.69091 9.21370 1286 ft 34 kts 253°
2026-05-04 15:28 48.68983 9.20799 1286 ft 24 kts 253°
2026-05-04 15:28 48.68957 9.20645 1288 ft 12 kts 277°
2026-05-04 15:28 48.69064 9.20441 1287 ft 12 kts 267°
2026-05-04 15:29 48.69037 9.20316 1285 ft 14 kts 255°
2026-05-04 15:30 48.68908 9.19857 1286 ft 6 kts 241°
2026-05-04 15:30 48.68966 9.19778 1289 ft 0 kts 343°